Rbgn^[z[y[W
メイン
   新天体発見情報
     Comet C/2025 B1 (PANSTARRS)
投稿するにはまず登録を

スレッド表示 | 新しいものから 前のトピック | 次のトピック | 下へ
投稿者 スレッド
佐藤裕久
投稿日時: 2025-1-28 23:10
モデレータ
登録日: 2005-6-12
居住地: 日本
投稿: 2590
オンライン
Comet C/2025 B1 (PANSTARRS)

Y. Ramanjooloo (ハワイ大学天文研究所)の通報によると、1月20日UT、HaleakalaにあるPan-
STARRS2の1.8-m Ritchey-Chretien 反射望遠鏡で得た画像から彗星を発見した。
4枚の45-秒のw-バンドサーベイ画像では、1".2-1".3のシーイングで、2".4(半値全幅:FWHM)の
集光した頭部が見え、p.a. 220°に7"のまっすぐな尾がある。
小惑星センターのPCCP webpageに公表後、S. Deen (S. Deen (Simi Valley, カリフォルニア州, 
米国)は、2024年12月24.35-24.37日(20.4等)と2025年1月3.28-3.30日(20.3等)にMt Lemmon 
サーベイの1.5-m 反射望遠鏡で得た観測アーカイブを見つけた。 12月24日、この天体は明らか
に彗星には見えない(しかし、南東の反太陽ベクトル方向の恒星が、尾を隠しているかもしれな
い)。1月3日、彗星は3"(FWHM)のかなり集光したコマが見え、p.a. 230°に向かって9" の尾が
ある)によって彗星状と確認された。

彗星機能の報告は次のとおり、

OC   Date        Reporter            Coma    Tail   PA   Comet     Date
                                                        (T/P)   Reported
G96  2025-01-03  S. Deen             5"        9"  230    T   2025-01-21.62
F52  2025-01-20  Y. Ramanjooloo      1".2      7"  220    T   2025-01-20.53
G00  2025-01-21  M. Jaeger           7"                   P   2025-01-23.33

発見位置は次のとおり(PCCP P225G7o)、

     2025 UT             R.A. (2000) Decl.       Mag.
     Jan. 20.24040    5 56 04.37   +16 53 17.8   20.7
          20.25124    5 56 04.03   +16 53 24.4   20.6
          20.26212    5 56 03.68   +16 53 30.7   20.7
          20.27295    5 56 03.33   +16 53 37.3   20.6
          20.38375    5 55 59.82   +16 54 42.5   21.5
          20.38440    5 55 59.81   +16 54 42.7   20.1

MPCの楕円軌道要素、位置推算表は次のとおり、

Orbital elements:
    C/2025 B1 (PANSTARRS)                                                       
Epoch 2025 July 24.0 TT = JDT 2460880.5                                         
T 2025 June 26.47001 TT                                 Veres                   
q   3.5326989            (2000.0)            P               Q                  
z  +0.0001955      Peri.   23.44191     -0.50239965     -0.60000234             
 +/-0.0000001      Node   102.84070     +0.65723516     -0.73286549             
e   0.9993093      Incl.   39.68284     +0.56181539     +0.32078865             
From 35 observations 2024 Dec. 24-2025 Jan. 23, mean residual 0".4.             
                                                                                
Ephemeris:
Date    TT    R. A. (2000) Decl.     Delta      r    Elong.  Phase   m1
2024 12 24    06 12 57.5 +12 38 10   2.9388  3.9093   169.2     2.7  20.3
...
2025 01 08    06 03 07.6 +14 54 41   2.9099  3.8538   161.2     4.7  20.2
...
2025 01 16    05 58 20.5 +16 11 53   2.9235  3.8257   152.9     6.7  20.2
...
2025 01 22    05 55 11.7 +17 10 31   2.9459  3.8053   146.5     8.2  20.2
2025 01 23    05 54 43.0 +17 20 18   2.9506  3.8020   145.4     8.5  20.1
2025 01 24    05 54 15.1 +17 30 05   2.9556  3.7987   144.3     8.7  20.1
...
2025 01 30    05 51 47.3 +18 28 33   2.9909  3.7792   137.8    10.1  20.2
...
2025 02 07    05 49 28.5 +19 45 21   3.0509  3.7542   129.3    11.7  20.2
...
2025 02 22    05 48 28.9 +22 02 54   3.1956  3.7105   114.1    14.1  20.2

(MPEC 2025-B77、CBET 5497)

スレッド表示 | 新しいものから 前のトピック | 次のトピック | トップ

投稿するにはまず登録を
 
© 1999 Tsutomu Seki.